AQI (44)

Current Conditions for Foresthill, CA. Clear skies, Dry   
Visibility: 10 miles
Space WX Alerts: CONTINUED ALERT:  Electron 2MeV Integral Flux exceeded 1000pfu ( Latest Alert ) - Issue Time: 2019 Apr 15 1734 UTC

  Summary / Temperature 

Current Temperature
49.4°F
9.7°C
(24/hr Ago)
43.6°F
(Apparent temp)
47.8°F
Cool
Wind Chill Graphs
49.4°F 

49.4°F/ 9.7°C
 --- Virtual Temp: 51.4°F ---

 Temp Rate:

 24/hr Difference:

 Avg Running Temp:

 Todays High:

 Todays Low:

 Y-days High:

 Y-days Low:

 Todays WChill:

 Y-days WChill:

 Evapotranspiration:

-1.0°F/hr 

+5.8°F

50.7°F

53.6°F 12:00am

49.4°F 4:13am

66.8°F 1:55pm

43.3°F 3:31am

47.9°F 3:34am

35.6°F 7:17am

0.000 in

115' Above Ground

 Temperature:

 6'AGL VRS 115'AGL:

 Avg Running Temp:

 Humidity:

 Todays High:

 Todays Low:

 Y-days High:

 Y-days Low:

54.0°F 

+4.6°F

55.0°F

67% 

58.0°F 12:00am

54.0°F 3:46am

67.0°F 4:47pm

48.0°F 2:54am

Temp & Humidity Graphs

  Wind 

Wind Speed

 Calm

Gusting to

 None

Calm

105°  

Calm

 Avg speed:

 Wind Run:

 Peak Gust:

Calm 

3.0 miles

  9.0 mph 1:29am

  Almanac  

Moon age: 13 days,15 hours,36 minutes,98%

Waxing Gibbous
98%
Illuminated
13 days in cycle

 Moonrise:

 Moonset:

 Sunrise:

 Sunset:

 Solar Noon:

7:06pm

6:16am

6:20am

7:41pm

1:03pm

2min 29s more daylight tomorrow 

  Solar Radiation 

(Current Solar)
  No Sun Light
(Todays High)
 None@12:00am

Rain

 Rain Today:

 Rain Rate (/hr):

 Rain last hour:

 Rain Yesterday:

 This Month:

 Season Total:

1 Day Since Last Rain Day

0.00 in

0.000 in

0.00 in

0.00 in

2.63 in

47.38 in

Updated Time

Updated: 4/18/19  4:19am

(Updated  sec ago)

Humidity & Barometer

 Humidity:

 Wetbulb:

 Dew Point:

 Barometer:

79% 

46.3°F 

43.2°F 

30.201 inHg 

 Baro Trend:  Steady 
Northern Calif
Preparedness
Fire 
Level 

    UV Index  

(Current UV)
0.0  None
(Todays High) @ 12:00am
0.0   None

National Weather Service Forecast

Overnight

Overnight: Clear
Clear
Thursday

Thursday: Sunny
Sunny
Thursday
Night
Thursday Night: Mostly Clear
Mostly Clear
Friday

Friday: Sunny
Sunny
Friday
Night
Friday Night: Partly Cloudy
Partly Cloudy
Saturday

Saturday: Slight Chance Rain Showers
Slight Chance Rain Showers
Lo 47 °F ↑ Hi 75 °F Lo 51 °F Hi 75 °F Lo 53 °F Hi 64 °F

Foresthill Probe 2 Stats  
Foresthill Probe 2: is located on Thomas Street
at 3000 feet. The main Foresthill Weather site
is located on Melody ln at the 2860 foot elevation

Calm
48.5°F
9.2°C
Temp Rate:
-1.0°F
Calm
Gusting to
2.0 mph
(Humidity)
79%
Wind from SE
131°  SE
Updated: 18/04/19 - 04:13:27
 Todays High: 52.7°F 00:00
 Todays Low: 48.5°F 04:11
 Rain Today: 0.00 in
 Season Total: 51.47 in

Foresthill Wx: Monthly,Yearly, Highs and Lows 

Foresthill  
This Weather Data is coming from the main Foresthill
Weather site located on Melody ln at the 2860 foot
elevation
Not Foresthill Probe 2
Weather Data
Month
  High
Month
  Low
Year
High
Year
Low
Temp 67.0°F
4/13/19
38.0°F
4/10/19
69.9°F
3/18/19
24.5°F
2/18/19
Humidity 99%
4/9/19
27%
4/12/19
100%
1/9/19
21%
1/1/19
Heat Index 68.2°F
4/7/19
40.1°F
4/10/19
68.8°F
3/18/19
30.1°F
2/22/19
Wind Chill 67.0°F
4/13/19
32.3°F
4/15/19
69.9°F
3/18/19
11.5°F
2/11/19
Wind Gust 25 mph
4/14/19
0 mph
4/1/19
48 mph
2/27/19
0 mph
1/1/19
Barometer 30.35 in
4/7/19
29.79 in
4/15/19
30.54 in
1/23/19
29.37 in
2/14/19
ET 0.16 in
4/13/19
0.00 in
4/1/19
0.16 in
4/13/19
0.00 in
1/1/19
Dew Point 53.7°F
4/7/19
25.4°F
4/10/19
53.7°F
4/7/19
7.7°F
1/1/19
Pacific Satellite US Radar Satellite Imagery Sacramento,CA.  (click to enlarge)
NWS Weather Forecast - Summary
Updated: Wednesday, April 17, 2019 - 2:49pm PDT
Current Interstate Highway Conditions for I-80 & US-50

[I 80: IN THE SAN FRANCISCO BAY AREA - SOLANO CO]
no traffic restrictions are reported for this area.

[I 80: IN THE NORTHERN CALIFORNIA AREA & SIERRA NEVADA]
no traffic restrictions are reported for this area.

[US 50: IN THE SACRAMENTO VALLEY & THE LAKE TAHOE BASIN]
  1-way controlled traffic at various locations from 2. 9 mi east of placerville /carson rd/ to 4. 6 mi west of riverton /pg&e canal/ (EL DORADO CO) from 7:00am to 5:30pm monday thru friday thru 4/19/19 - due to construction
is reduced to 1 lane in each direction from clay st to carson rd /in placerville/ (EL DORADO CO) 24 hrs a day thru 2359 hrs on 4/26/19 - due to construction
NWS Weather Forecast: Overnight and Thursday (Updated: Thu, 18-Apr-2019 1:53am PDT)
Overnight

Overnight: Clear
Clear

Lo 47 °F ↑
NWS forecast: Clear. Low around 47, with temperatures rising to around 49 overnight. East northeast wind around 7 mph.
Thursday

Thursday: Sunny
Sunny

Hi 75 °F
NWS forecast: Sunny, with a high near 75. South wind around 7 mph.
YR.NO 10 Day Weather forecast
Last update: 04/18/2019 @ 00:35
Next update: 04/18/2019 @ 13:00
Provided by: 22
      Temperature Precipitation Pressure Wind  
Today
04/18/2019
02:00 06:00 43°F   30.16 inHg Light breeze from east-northeast 7 mph
  06:00 12:00 41°F   30.14 inHg Light breeze from east-northeast 6 mph
  12:00 18:00 70°F   30.14 inHg Light breeze from southwest 4 mph
  18:00 00:00 70°F   30.04 inHg Light air from west-southwest 2 mph
    (Click to enlarge)
meteogram

    Forecast for next 9 days

      Temperature Precip Pressure Wind  
Friday
04/19/2019
00:00 06:00 48°F   30.05 inHg Light breeze from east-northeast 4 mph
  06:00 12:00 46°F   29.96 inHg Light breeze from east-northeast 6 mph
  12:00 18:00 73°F   29.92 inHg Light breeze from southwest 6 mph
  18:00 00:00 68°F   29.84 inHg Light breeze from southwest 4 mph
      Temperature Precip Pressure Wind  
Saturday
04/20/2019
00:00 06:00 52°F   29.82 inHg Light breeze from east 4 mph
  06:00 12:00 46°F   29.79 inHg Light breeze from east-southeast 4 mph
  12:00 18:00 59°F   29.84 inHg Gentle breeze from south-southwest 9 mph
  17:00 23:00 57°F   29.83 inHg Gentle breeze from south-southwest 11 mph
  23:00 05:00 45°F   29.93 inHg Light air from east 2 mph
      Temperature Precip Pressure Wind  
Sunday
04/21/2019
05:00 11:00 36°F   29.96 inHg Light breeze from east-northeast 4 mph
  11:00 17:00 61°F   29.99 inHg Light breeze from west 5 mph
  17:00 23:00 61°F   29.98 inHg Light breeze from west-northwest 7 mph
  23:00 05:00 43°F   30.03 inHg Gentle breeze from east-northeast 8 mph
      Temperature Precip Pressure Wind  
Monday
04/22/2019
05:00 11:00 39°F   30.04 inHg Gentle breeze from east-northeast 9 mph
  11:00 17:00 68°F   30.04 inHg Light air from north-northwest 3 mph
  17:00 23:00 70°F   29.98 inHg Light breeze from west-northwest 7 mph
  23:00 05:00 50°F   30.01 inHg Gentle breeze from east-northeast 9 mph
      Temperature Precip Pressure Wind  
Tuesday
04/23/2019
05:00 11:00 54°F   29.98 inHg Gentle breeze from east-northeast 9 mph
  11:00 17:00 75°F   30.00 inHg Light air from southwest 3 mph
  17:00 23:00 72°F   29.97 inHg Light breeze from west-southwest 5 mph
  23:00 05:00 52°F   29.98 inHg Gentle breeze from east-northeast 8 mph
      Temperature Precip Pressure Wind  
Wednesday
04/24/2019
05:00 11:00 50°F   29.95 inHg Light breeze from east-northeast 7 mph
  11:00 17:00 75°F   29.97 inHg Light breeze from south-southwest 6 mph
  17:00 23:00 75°F   29.91 inHg Light breeze from southwest 5 mph
  23:00 05:00 52°F   29.93 inHg Light breeze from east-northeast 5 mph
      Temperature Precip Pressure Wind  
Thursday
04/25/2019
05:00 11:00 50°F   29.90 inHg Light breeze from east-northeast 7 mph
  11:00 17:00 73°F   29.91 inHg Light breeze from southwest 5 mph
  17:00 23:00 72°F   29.88 inHg Light breeze from southwest 6 mph
  23:00 05:00 50°F   29.91 inHg Light air from east-northeast 3 mph
      Temperature Precip Pressure Wind  
Friday
04/26/2019
05:00 11:00 48°F   29.88 inHg Light breeze from east 5 mph
  11:00 17:00 68°F   29.92 inHg Light breeze from southwest 5 mph
  17:00 23:00 70°F   29.87 inHg Light breeze from west-southwest 5 mph
  23:00 05:00 48°F   29.89 inHg Light air from east-northeast 3 mph
      Temperature Precip Pressure Wind  
Saturday
04/27/2019
05:00 11:00 43°F   29.85 inHg Light breeze from east-northeast 6 mph
  11:00 17:00 70°F   29.86 inHg Light breeze from southwest 5 mph

NOAA Local Storm Report
10 MILES EAST-NORTHEAST OF OATMAN   ( More )
DATE
04/16/2019
TIME
7:30 PM
COUNTY
MOHAVE
STATE
AZ
GEOGRAPHIC
35.07N 114.22W
SOURCE
LAW ENFORCEMENT
FLASH FLOOD
oatman highway flooded at sacramento wash.
How Close Are We To this Month's Temperature Record ?
Updated Thursday, Apr 18, 2019- 4:10:01 AM

Current Temperature: 49.4°F

April's High: Temperature Record 83.2°F - Set on Sun, Apr 22, 2012 - 2:12:00 PM
We are currently 33.8°F Less than this Month's record High

April's Low: Temperature Record 31.4°F - Set on Thu, Apr 5, 2012 - 6:23:00 AM
We are currently 18°F More than this Month's record Low

Weather History For Thursday, April 18, 2019


On this Day - In Weather History ...
Data courtesy of weatherforyou.com
powered by Cumulus v1.9.3 (1059)
Ambient Weather VWS v14.00
Top Contact Website Map Copyright © 2007 - 2019 Foresthillweather.com Never base important decisions on this or any weather information obtained from the Internet